Flag for Mexico Weather past 2 weeks in Campeche, Campeche, Mexico

Now
66 °F

Clear.


Feels Like: 66 °F
Forecast: 67 / 79 °F
Wind: 9 mph from East

Location: Aerop. Internacional Merida - Yuc

Current Time: Jan 30, 2015 at 2:35:38 AM

Latest Report: Jan 30, 2015 at 12:44 AM


Visibility: 7 mi

Pressure: 30.18 "Hg

Humidity: 73%

Dew point: 57 °F

Location of CampecheLocation

Historic Weather in Campeche — Graph

°F

Campeche temperature yesterday

Maximum temperature yesterday: 82 °F (at 1:45 PM)
Minimum temperature yesterday: 61 °F (at 5:50 AM)
Average temperature yesterday: 71 °F

Past Weeks' High & Low Weather Summary

 TemperatureHumidityPressure
High91 °F (Jan 23, 2:52 PM)100% (Jan 15, 3:50 AM)30.21 "Hg (Jan 15, 3:50 AM)
Low52 °F (Jan 27, 6:46 AM)40% (Jan 29, 1:45 PM)29.87 "Hg (Jan 23, 2:52 PM)
Average71 °F78%30.08 "Hg
* Reported Jan 15 12:52 AM — Jan 30 12:44 AM, Campeche, Weather by CustomWeather, © 2014

Note: Actual official high and low records may vary slightly from our data, if they occured in-between our weather recording intervals... More about our weather records

Advertising

Campeche weather history for previous 24 hours

 ConditionsComfort  
Time TempWeatherWind HumidityBarometerVisibility
12:44 AM
Jan 30
66 °FClear.9 mph73%30.18 "Hg7 mi
11:44 PM
Jan 29
66 °FClear.No wind73%30.19 "Hg7 mi
10:44 PM68 °FClear.8 mph73%30.19 "Hg7 mi
7:47 PM72 °FClear.9 mph65%30.15 "Hg7 mi
6:49 PM72 °FClear.5 mph65%30.13 "Hg7 mi
5:48 PM75 °FPassing clouds.12 mph57%30.13 "Hg7 mi
4:42 PM79 °FPartly sunny.12 mph48%30.09 "Hg7 mi
2:45 PM82 °FScattered clouds.17 mph40%30.09 "Hg7 mi
1:45 PM82 °FScattered clouds.9 mph40%30.10 "Hg7 mi
11:42 AM81 °FPartly sunny.9 mph42%30.16 "Hg7 mi
10:46 AM79 °FScattered clouds.5 mph45%30.19 "Hg7 mi
9:48 AM77 °FSunny.12 mph47%30.20 "Hg7 mi
8:44 AM73 °FSunny.6 mph53%30.19 "Hg7 mi
7:46 AM66 °FSunny.8 mph73%30.18 "Hg7 mi
6:46 AM63 °FSunny.No wind88%30.15 "Hg7 mi
5:50 AM61 °FClear.No wind88%30.15 "Hg7 mi
4:52 AM63 °FClear.6 mph83%30.12 "Hg7 mi
3:53 AM63 °FClear.No wind83%30.10 "Hg7 mi
2:53 AM64 °FClear.7 mph78%30.16 "Hg7 mi
Weather by CustomWeather, © 2014

See weather overviewHow to use our weather pages